Weather History for KPHD - May, 2013

Change the Weather History Date:

Sunday, May 12, 2013

  Actual Average Record
Temperature  
Mean Temperature 45 °F 59 °F  
Max Temperature 52 °F 71 °F 89 °F (1979)
Min Temperature 37 °F 46 °F 31 °F (1976)
Degree Days  
Heating Degree Days 20 7  
Month to date heating degree days 40 99  
Since 1 July heating degree days 5480 5514  
Cooling Degree Days 0 1  
Month to date cooling degree days 6 3  
Year to date cooling degree days 18 10  
Moisture  
Dew Point 31 °F    
Average Humidity 62    
Maximum Humidity 85    
Minimum Humidity 39    
Precipitation  
Precipitation 0.00 in 0.12 in 1.44 in (1968)
Month to date precipitation 0.98 1.42  
Year to date precipitation 9.05 12.85  
Sea Level Pressure  
Sea Level Pressure 30.00 in    
Wind  
Wind Speed 8 mph (West)    
Max Wind Speed 20 mph    
Max Gust Speed 28 mph    
Visibility 10 miles    
Events      
T = Trace of Precipitation, MM = Missing Value Source: NWS Daily Summary

Daily Weather History Graph

Daily Weather History Graph

Search for Another Location

Airport or City:

Trip Planner

Search our weather history database for the weather conditions in past years. The results will help you decide how hot, cold, wet, or windy it might be!

Date:

Astronomy

May. 12, 2013 Rise Set
Actual Time 6:11 AM EDT 8:32 PM EDT
Civil Twilight 5:41 AM EDT 9:03 PM EDT
Nautical Twilight 5:03 AM EDT 9:41 PM EDT
Astronomical Twilight 4:21 AM EDT 10:23 PM EDT
Moon 8:05 AM EDT (5/12) 10:58 PM EDT (5/12)
Length of Visible Light 15h 22m
Length of Day
14h 20m
Waxing Crescent, 6% of the Moon is Illuminated
May 12
Waxing Crescent
May 18
First Quarter
May 25
Full
May 31
Last Quarter
Jun 8
New

Hourly Weather History & Observations

Time (EDT) Temp. Windchill Dew Point Humidity Pressure Visibility Wind Dir Wind Speed Gust Speed Precip Events Conditions
12:53 AM 46.9 °F - 39.9 °F 77% 29.93 in 10.0 mi WNW 8.1 mph 17.3 mph N/A   Overcast
1:07 AM 46.4 °F 41.5 °F 39.2 °F 76% 29.93 in 10.0 mi WNW 10.4 mph 17.3 mph N/A   Overcast
1:36 AM 46.4 °F 41.9 °F 37.4 °F 71% 29.93 in 10.0 mi WNW 9.2 mph 18.4 mph N/A   Overcast
1:53 AM 46.0 °F 40.6 °F 37.9 °F 73% 29.95 in 10.0 mi WNW 11.5 mph - N/A   Overcast
2:53 AM 44.1 °F 39.5 °F 34.0 °F 68% 29.94 in 10.0 mi NW 8.1 mph - N/A   Mostly Cloudy
3:53 AM 41.0 °F 39.0 °F 34.0 °F 76% 29.95 in 10.0 mi WNW 3.5 mph - N/A   Clear
4:53 AM 39.0 °F - 33.1 °F 79% 29.95 in 10.0 mi Calm Calm - N/A   Clear
5:53 AM 37.0 °F - 33.1 °F 86% 29.96 in 10.0 mi Calm Calm - N/A   Clear
6:53 AM 37.0 °F - 33.1 °F 86% 29.98 in 10.0 mi Calm Calm - N/A   Clear
7:53 AM 41.0 °F 38.0 °F 33.1 °F 73% 29.98 in 10.0 mi WSW 4.6 mph - N/A   Clear
8:53 AM 44.1 °F 40.1 °F 32.0 °F 63% 29.99 in 10.0 mi West 6.9 mph - N/A   Partly Cloudy
9:53 AM 46.9 °F - 33.1 °F 59% 29.99 in 10.0 mi WSW 9.2 mph - N/A   Mostly Cloudy
10:53 AM 46.9 °F - 28.0 °F 48% 29.99 in 10.0 mi West 9.2 mph 23.0 mph N/A   Overcast
11:53 AM 48.9 °F - 26.1 °F 41% 29.99 in 10.0 mi WNW 13.8 mph 24.2 mph N/A   Mostly Cloudy
12:53 PM 48.0 °F - 26.1 °F 42% 30.01 in 10.0 mi West 13.8 mph 23.0 mph N/A   Overcast
1:53 PM 50.0 °F - 28.0 °F 43% 30.01 in 10.0 mi West 11.5 mph 21.9 mph N/A   Overcast
2:53 PM 52.0 °F - 28.9 °F 41% 30.02 in 10.0 mi West 16.1 mph 27.6 mph N/A   Mostly Cloudy
3:53 PM 50.0 °F - 28.0 °F 43% 30.02 in 10.0 mi West 11.5 mph 21.9 mph N/A   Mostly Cloudy
4:53 PM 50.0 °F - 27.0 °F 41% 30.02 in 10.0 mi WNW 17.3 mph 23.0 mph N/A   Overcast
5:53 PM 50.0 °F - 26.1 °F 39% 30.04 in 10.0 mi WNW 11.5 mph 20.7 mph N/A   Overcast
6:53 PM 50.0 °F - 27.0 °F 41% 30.04 in 10.0 mi West 15.0 mph 25.3 mph N/A   Mostly Cloudy
7:53 PM 48.9 °F - 28.9 °F 46% 30.04 in 10.0 mi Variable 5.8 mph - N/A   Overcast
8:53 PM 46.9 °F - 28.9 °F 50% 30.06 in 10.0 mi West 6.9 mph - N/A   Mostly Cloudy
9:53 PM 46.0 °F 43.9 °F 28.0 °F 50% 30.09 in 10.0 mi WNW 4.6 mph - N/A   Mostly Cloudy
10:53 PM 45.0 °F 39.7 °F 27.0 °F 49% 30.11 in 10.0 mi WNW 10.4 mph - N/A   Mostly Cloudy
11:53 PM 43.0 °F 38.8 °F 27.0 °F 53% 30.12 in 10.0 mi WNW 6.9 mph - N/A   Clear